Location: Lecco
(45.8566°N, 9.3977°E)
Time: 04:11:56
(UTC+02:00)

Transit 4A - Pass Details

Date: 15 August 2020
Orbit: 863 x 982 km, 66.8° (Epoch: 23 September)

Event Time Altitude Azimuth Distance (km) Brightness Sun altitude
Rises 13:36:08 0° 307° (NW) 3,590 10.8 57.9°
Reaches altitude 10° 13:41:46 10° 348° (NNW) 2,685 10.1 57.8°
Maximum altitude 13:42:40 10° 356° (N) 2,668 10.1 57.8°
Drops below altitude 10° 13:43:34 10° 5° (N) 2,695 10.1 57.8°
Sets 13:49:19 0° 45° (NE) 3,671 10.7 57.6°
